Regional Weather Roundup
Issued by NWS

Home | Current Version | Previous Version | Graphics & Text | Print | Product List | Glossary Off
Versions: 1 2 3 4 5 6 7 8 9 10 11 12 13 14 15 16 17 18 19 20 21 22 23 24 25 26 27 28 29 30 31 32 33 34 35 36 37 38 39 40 41 42 43 44 45 46 47 48 49 50

508
ASUS43 KDMX 271501
RWRIA

WEATHER ROUNDUP FOR IOWA
NATIONAL WEATHER SERVICE DES MOINES IA
900 AM CST MON FEB 27 2017

NOTE: "FAIR" INDICATES FEW OR NO CLOUDS BELOW 12,000 FEET WITH NO
SIGNIFICANT WEATHER AND/OR OBSTRUCTIONS TO VISIBILITY.

* - THESE STATIONS ARE NOT NWS STATIONS...THUS NOT UNDER NWS
QUALITY CONTROL.  THEY ALSO DO NOT REPORT WEATHER SUCH
AS PRECIPITATION OR FOG.

IAZ001>003-012>014-020>022-031>034-043>046-271600-
   NORTHWEST IOWA

CITY           SKY/WX    TMP DP  RH WIND       PRES   REMARKS
CARROLL *      SUNNY     25  25 100 CALM      29.99S
CHEROKEE *     SUNNY     19  19 100 CALM      29.97R
DENISON *      SUNNY     27  21  80 CALM      29.96S
LE MARS *      SUNNY     28  23  80 S9        29.96S WCI  20
SHELDON *      SUNNY     27  27 100 S7        29.94R WCI  19
SIOUX CITY     MOSUNNY   22  18  85 E10       29.96S WCI  11
SPENCER        SUNNY     22  17  81 S6        29.96R WCI  14
STORM LAKE *   SUNNY     23  18  80 S10       29.96R WCI  12
$$

IAZ055>058-069>071-079>083-090>094-271600-
   SOUTHWEST IOWA

CITY           SKY/WX    TMP DP  RH WIND       PRES   REMARKS
ATLANTIC *     SUNNY     30  28  93 CALM      30.00S
AUDUBON *      SUNNY     28  25  86 S6        29.99S WCI  22
CLARINDA *     FOG       30  30 100 CALM      30.04S VSB<1/4
COUNCIL BLFS * SUNNY     32  27  80 SE8       29.97F WCI  25
CRESTON *      FOG       32  32 100 S10       30.03S VSB<1/4 WCI  24
HARLAN  *      SUNNY     25  25 100 CALM      30.03R
LAMONI         FOG       31  31 100 S8        30.04R VSB 1/4 WCI  23
RED OAK *      SUNNY     34  32  93 S5        30.02R WCI  30
SHENANDOAH *   SUNNY     34  32  93 S7        30.02R WCI  28
$$

IAZ047>049-059>061-072>074-084-271600-
   CENTRAL IOWA

CITY           SKY/WX    TMP DP  RH WIND       PRES   REMARKS
AMES           SUNNY     29  28  96 SE3       30.04R
ANKENY *       SUNNY     34  30  86 S7        30.05S WCI  28
BOONE *        SUNNY     32  28  86 S7        30.01R WCI  26
CHARITON *     MOSUNNY   34  34 100 S9        30.05R WCI  26
DES MOINES     MOSUNNY   33  29  85 S8        30.04R WCI  26
GRINNELL*      SUNNY     35  32  90 S7        30.06R WCI  29
KNOXVILLE *    SUNNY     36  32  87 S9        30.04R WCI  29
MARSHALLTOWN   SUNNY     30  28  92 SE8       30.03S WCI  22
NEWTON *       SUNNY     34  32  93 S8        30.04S WCI  27
PELLA *        SUNNY     37  32  83 S6        30.07R WCI  32
PERRY *          N/A     32  29  90 SE7       30.02R WCI  25
$$

IAZ004>006-015-016-023>025-035-036-271600-
   NORTH CENTRAL IOWA

CITY           SKY/WX    TMP DP  RH WIND       PRES   REMARKS
ALGONA *       SUNNY     25  21  86 S10       29.98S WCI  15
CLARION *      SUNNY     27  23  86 SE9       30.01S WCI  17
ESTHERVILLE    SUNNY     19  16  88 S13       29.96R WCI   6
FORT DODGE *   SUNNY     21  18  86 CALM      30.00S
MASON CITY     SUNNY     17  15  92 S6        30.02R FOG     WCI   9
FOREST CITY *    N/A     30  27  86 CALM      30.01R
WEBSTER CITY * SUNNY     28  23  80 SE10      29.99S WCI  19
IOWA FALLS *     N/A     31  27  84 SE9       30.03R WCI  23
$$

IAZ007>011-017>019-026>030-037>042-050>054-066-271600-
   NORTHEAST IOWA

CITY           SKY/WX    TMP DP  RH WIND       PRES   REMARKS
CEDAR RAPIDS   MOSUNNY   34  33  96 S10       30.06R WCI  26
CHARLES CITY * SUNNY     27  27 100 SE7       30.04R WCI  19
CLINTON *      SUNNY     37  33  85 S10       30.11S WCI  30
DECORAH *      SUNNY     28  25  86 SE7       30.03S WCI  21
DUBUQUE        CLOUDY    33  29  85 S8        30.07R WCI  26
MONTICELLO *   MOSUNNY   34  30  86 S10       30.07S WCI  26
OELWEIN *      SUNNY     34  30  86 SE9       30.06R WCI  26
WATERLOO       SUNNY     32  27  81 SE8       30.04S WCI  25
$$

IAZ064-065-067-068-078-271600-
   EAST CENTRAL IOWA

CITY           SKY/WX    TMP DP  RH WIND       PRES   REMARKS
DAVENPORT      SUNNY     37  33  85 S9        30.10S WCI  30
IOWA CITY      MOSUNNY   36  32  85 S6        30.10S WCI  31
MUSCATINE *    SUNNY     36  34  93 SE8       30.11S WCI  29
QUAD CITIES    SUNNY     39  34  82 S5        30.11R
$$

IAZ062-063-075>077-085>089-095>099-271600-
   SOUTHEAST IOWA

CITY           SKY/WX    TMP DP  RH WIND       PRES   REMARKS
BURLINGTON     SUNNY     39  35  86 S7        30.11R WCI  34
FAIRFIELD *    PTSUNNY   36  36 100 S8        30.08S WCI  29
FORT MADISON * SUNNY     43  39  87 SE6       30.10F
KEOKUK *       SUNNY     39  37  93 SE6       30.09F WCI  35
CENTERVILLE *  CLOUDY    32  32 100 CALM      30.08R FOG
OTTUMWA        FOG       33  33 100 S12       30.07R VSB 1/4 WCI  24
WASHINGTON *   SUNNY     37  36  93 S9        30.09F WCI  31
$$

ABBREVIATIONS USED IN REMARKS
   TC - TEMPERATURES IN CELSIUS
  WCI - WIND CHILL INDEX
   HX - HEAT INDEX
  VSB - VISIBILITY
$$





USA.gov is the U.S. government's official web portal to all federal, state and local government web resources and services.